User: anonymous   Login
Location: Newark
(34.1333°N, 7.9667°W)
Time: 14:43:46
(UTC+00:00)
Language:

Vanguard 2 Rocket - Orbit

View from above orbital plane
View from above orbital plane
View from above satellite
View from above satellite

Ground track
Ground track

The orbit data is extracted from the following two-line orbital elements,

1 00012U 59001B   21172.56071938 -.00000045  00000-0 -47199-4 0  9995
2 00012  32.9049 139.4109 1666322 216.6738 130.7567 11.44391690322271
Epoch (UTC): 21 June 2021 13:27:26
Eccentricity: 0.1666322
inclination: 32.9049°
perigee height: 554 km
apogee height: 3326 km
right ascension of ascending node: 139.4109°
argument of perigee: 216.6738°
revolutions per day: 11.44391690
mean anomaly at epoch: 130.7567°
orbit number at epoch: 32227

The dashed part of the orbit path shows where the satellite is in the earth's shadow,  

DLR